Regional Weather Roundup
Issued by NWS

Home | Current Version | Previous Version | Graphics & Text | Print | Product List | Glossary On
Versions: 1 2 3 4 5 6 7 8 9 10 11 12 13 14 15 16 17 18 19 20 21 22 23 24 25 26 27 28 29 30 31 32 33 34 35 36 37 38 39 40 41 42 43 44 45 46 47 48 49 50
000
ASUS43 KIND 201209
RWRIN

WEATHER ROUNDUP FOR INDIANA
NATIONAL WEATHER SERVICE INDIANAPOLIS IN
800 AM EDT THU JUL 20 2017

NOTE: "FAIR" INDICATES FEW OR NO CLOUDS BELOW 12,000 FEET WITH NO
SIGNIFICANT WEATHER AND/OR OBSTRUCTIONS TO VISIBILITY.

* - STATION DOES NOT REPORT WEATHER SUCH AS PRECIPITATION OR FOG.

+ - STATION NOT QUALITY CONTROLLED BY THE NATIONAL WEATHER SERVICE.
    USE DATA WITH CAUTION...ESPECIALLY DEWPOINT AND RELATIVE
    HUMIDITY OBSERVATIONS.

INZ001>003-010>013-019-020-201300-
NORTHWEST INDIANA

CITY           SKY/WX    TMP DP  RH WIND       PRES   REMARKS
GARY /AIRPORT/ RAIN      72  70  94 NE6       30.08R
KNOX *+        CLOUDY    68  68 100 CALM      30.07R
LA PORTE +     RAIN      69  68  94 CALM      30.10R
6HR MIN TEMP:  68; 6HR MAX TEMP:  69; 6HR PCP:  0.03;

MICHIGAN CITY+ RAIN      68  68 100 CALM      30.10R
MONTICELLO +   CLOUDY    70  68  95 CALM      30.05S
6HR MIN TEMP:  69; 6HR MAX TEMP:  70;

RENSSELAER +   CLOUDY    70  68  94 E3        30.06R
VALPARAISO     LGT RAIN  71  69  93 CALM      30.09R FOG
6HR MIN TEMP:  70; 6HR MAX TEMP:  71; 6HR PCP:  0.07;


$$

LMZ046-743>745-201300-
SOUTHERN LAKE MICHIGAN

STATION/POSITION TIME  TEMP    WIND        PRES    WAVE
                       AIR SEA DIR/SP/G            HT
                 (UTC) (F)     (DEG/KT/KT) (MB)    (FT)
BURNS HARBOR     1140   71     310/  3/  5 1019.3R
MICHIGAN CITY    1140   70     220/  4/  5   N/A
5NW MICH CITY    1200   72 74  300/ 14/ 21   N/A     1

$$

INZ004-005-014>016-021>024-201300-
NORTH CENTRAL INDIANA

CITY           SKY/WX    TMP DP  RH WIND       PRES   REMARKS
ELKHART        CLOUDY    72  66  83 W5        30.07R
LOGANSPORT +   CLOUDY    70  68  94 CALM      30.08R
PERU/GRISSOM   CLOUDY    71  71 100 CALM      30.06R
6HR MIN TEMP:  70; 6HR MAX TEMP:  71; 6HR PCP:  0.06;

ROCHESTER +    CLOUDY    72  72 100 W3        30.08R
SOUTH BEND     CLOUDY    69  67  93 CALM      30.09R
6HR MIN TEMP:  68; 6HR MAX TEMP:  71; 6HR PCP:  0.01;

WARSAW +       CLOUDY    70  68  94 CALM      30.08S

$$

INZ006>009-017-018-025>027-201300-
NORTHEAST INDIANA

CITY           SKY/WX    TMP DP  RH WIND       PRES   REMARKS
ANGOLA *+      SUNNY     73  66  78 CALM      30.06S
AUBURN +       CLOUDY    72  64  78 CALM      30.07R
FORT WAYNE     CLOUDY    72  67  84 SW3       30.08S
6HR MIN TEMP:  71; 6HR MAX TEMP:  78; 6HR PCP: TRACE;

HUNTINGTON +   CLOUDY    70  69  96 CALM      30.08F
6HR MIN TEMP:  70; 6HR MAX TEMP:  77;

KENDALLVILLE + CLOUDY   N/A N/A N/A CALM      30.08R

$$

INZ028-029-035-036-043>045-051>053-201300-
WEST CENTRAL INDIANA

CITY           SKY/WX    TMP DP  RH WIND       PRES   REMARKS
GREENCASTLE +  MOSUNNY   73  72  94 CALM      30.09R
LAFAYETTE      CLOUDY    70  69  97 CALM      30.06R
6HR MIN TEMP:  68; 6HR MAX TEMP:  70;

TERRE HAUTE    CLOUDY    75  72  90 S3        30.07R
6HR MIN TEMP:  73; 6HR MAX TEMP:  77;


$$

INZ030>032-037>040-046>048-054>057-064-065-201300-
CENTRAL INDIANA

CITY           SKY/WX    TMP DP  RH WIND       PRES   REMARKS
CP ATTERBURY + CLOUDY    72  70  94 CALM      30.10R
COLUMBUS       PTSUNNY   72  70  94 CALM      30.10R
FRANKFORT +    CLOUDY    73  71  91 CALM      30.08S
6HR MIN TEMP:  70; 6HR MAX TEMP:  73;

GREENWOOD *+   CLOUDY    75  72  90 S3        30.09R
INDIANAPOLIS   CLOUDY    76  71  85 S6        30.07R
6HR MIN TEMP:  74; 6HR MAX TEMP:  77;

-EAGLE CREEK   CLOUDY    76  70  82 S3        30.07R
6HR MIN TEMP:  73; 6HR MAX TEMP:  78;

KOKOMO +       CLOUDY    72  70  93 CALM      30.09R
6HR MIN TEMP:  70; 6HR MAX TEMP:  76; 6HR PCP:  0.02;

MARION +       CLOUDY    72  70  94 CALM      30.10R
MT COMFORT *+  CLOUDY    73  72  94 CALM      30.09R
SHELBYVILLE    CLOUDY    75  71  87 S6        30.09R
6HR MIN TEMP:  71; 6HR MAX TEMP:  75;

ZIONSVILLE +   CLOUDY    72  69  92 S5        30.08S
6HR MIN TEMP:  69; 6HR MAX TEMP:  74;


$$

INZ033-034-041-042-049-050-058-059-201300-
EAST CENTRAL INDIANA

CITY           SKY/WX    TMP DP  RH WIND       PRES   REMARKS
MUNCIE         CLOUDY    77  70  79 N6        30.10R
6HR MIN TEMP:  75; 6HR MAX TEMP:  78;

RICHMOND +     PTSUNNY   72  70  94 SW5       30.12R FOG

$$

INZ060-061-067>069-081>083-085>088-201300-
SOUTHWEST INDIANA

CITY           SKY/WX    TMP DP  RH WIND       PRES   REMARKS
EVANSVILLE     SUNNY     76  73  91 CALM      30.10R FOG
6HR MIN TEMP:  74; 6HR MAX TEMP:  79;

HUNTINGBURG *+ SUNNY     74  73  97 CALM      30.11R FOG
6HR MIN TEMP:  72; 6HR MAX TEMP:  74;


$$

INZ062-063-066-070>080-084-089>092-201300-
SOUTH CENTRAL AND SOUTHEAST INDIANA

CITY           SKY/WX    TMP DP  RH WIND       PRES   REMARKS
BEDFORD +      CLOUDY    73  70  88 CALM      30.10R
BLOOMINGTON    CLOUDY    74  70  87 S3        30.08S
6HR MIN TEMP:  69; 6HR MAX TEMP:  74;

MADISON *+     CLOUDY    72  70  94 CALM      30.14R
NORTH VERNON + CLOUDY    72  70  94 CALM      30.12R

$$




USA.gov is the U.S. government's official web portal to all federal, state and local government web resources and services.